{"data":{"norad_id":49810,"intl_designator":"2021-116B","name":"GSAT0224 (GALILEO 28)","alt_names":[],"object_type":"PAYLOAD","status":"ACTIVE","operator":null,"country":"ESA","launch_date":"2021-12-05","launch_site_code":"FRGUI","launch_vehicle":null,"mission":null,"orbit_class":"UNKNOWN","rcs_meters":null,"size_class":null,"mass_kg":null,"dimensions":null,"purposes":["earth_obs","nav"],"wikipedia_slug":null,"has_3d_model":false,"image_url":null,"decayed_at":null,"tle_current":{"epoch":"2026-05-23T04:02:27.054816Z","epoch_age_seconds":230512,"freshness":"STALE","line1":"1 49810U 21116B   26143.16836869 -.00000088  00000+0  00000+0 0  9991","line2":"2 49810  57.1703 342.3482 0000531 126.1506 231.6723  1.70475835 27770","mean_motion":1.70475835,"eccentricity":5.31e-5,"inclination_deg":57.1703,"raan_deg":342.3482,"arg_perigee_deg":126.1506,"mean_anomaly_deg":231.6723,"bstar":0,"rev_number":2777,"period_min":844.69449878336,"perigee_km":23220.39887979,"apogee_km":23223.542411222,"semimajor_km":29600.107645506,"source":"CELESTRAK","updated_at":"2026-05-25T13:38:24.061567Z"}}}